This is the latest recevied weather packets stored in our database for station/object WE1C. If no packets are shown the sender has not sent any weather packets the latest 10 day(s).
| Time | Temp. | Humidity | Pressure | Rain* | Wind** | Luminosity | Snow |
|---|---|---|---|---|---|---|---|
| 1777998483 | 26.67° C | 39% | 1037.7 hPa | 0 mm | - | 786 W/m² | - |
| 1777998179 | 26.11° C | 40% | 1037.6 hPa | 0 mm | - | 760 W/m² | - |
| 1777997876 | 26.67° C | 43% | 1037.6 hPa | 0 mm | - | 739 W/m² | - |
| 1777997573 | 26.11° C | 40% | 1037.8 hPa | 0 mm | - | 768 W/m² | - |
| 1777997270 | 26.11° C | 40% | 1037.9 hPa | 0 mm | - | 771 W/m² | - |
| 1777996968 | 26.11° C | 40% | 1038.3 hPa | 0 mm | - | 780 W/m² | - |
| 1777996664 | 25.56° C | 40% | 1038.2 hPa | 0 mm | - | 764 W/m² | - |
| 1777996361 | 25.56° C | 40% | 1038.5 hPa | 0 mm | - | 756 W/m² | - |
| 1777996057 | 26.11° C | 41% | 1038.4 hPa | 0 mm | - | 761 W/m² | - |
| 1777995754 | 26.11° C | 40% | 1038.7 hPa | 0 mm | - | 802 W/m² | - |
| 1777995450 | 25.56° C | 40% | 1038.9 hPa | 0 mm | - | 812 W/m² | - |
| 1777995147 | 25.56° C | 41% | 1038.8 hPa | 0 mm | - | 830 W/m² | - |
| 1777994844 | 24.44° C | 42% | 1038.7 hPa | 0 mm | - | 819 W/m² | - |
| 1777994541 | 24.44° C | 43% | 1038.3 hPa | 0 mm | - | 818 W/m² | - |
| 1777994235 | 24.44° C | 43% | 1038.8 hPa | 0 mm | - | 845 W/m² | - |
| 1777993933 | 24.44° C | 43% | 1038.7 hPa | 0 mm | - | 858 W/m² | - |
| 1777993629 | 24.44° C | 43% | 1038.5 hPa | 0 mm | - | 874 W/m² | - |
| 1777993326 | 23.89° C | 45% | 1038.7 hPa | 0 mm | - | 889 W/m² | - |
| 1777993026 | 23.33° C | 45% | 1038.7 hPa | 0 mm | - | 895 W/m² | - |
| 1777992725 | 23.33° C | 46% | 1038.7 hPa | 0 mm | - | 657 W/m² | - |
| 1777992422 | 23.33° C | 46% | 1038.8 hPa | 0 mm | - | 508 W/m² | - |
| 1777992121 | 23.33° C | 46% | 1038.7 hPa | 0 mm | - | 368 W/m² | - |
| 1777991817 | 22.78° C | 46% | 1039.1 hPa | 0 mm | - | 945 W/m² | - |
| 1777991515 | 22.22° C | 48% | 1038.8 hPa | 0 mm | - | 868 W/m² | - |
| 1777991211 | 22.78° C | 47% | 1038.9 hPa | 0 mm | - | 257 W/m² | - |
* Rain latest hour (hover to see other rain measurements)
** Current wind speed in m/s (hover to see current wind gust speed)